Flag for U.S.A. Weather past 2 weeks in Pocatello, Idaho, U.S.A.

Now
26 °F

Overcast.


Feels Like: 12 °F
Forecast: 24 / 32 °F
Wind: 21 mph from South

Location: Pocatello Regional Airport

Current Time: Dec 27, 2014 at 10:28:43 PM

Latest Report: Dec 27, 2014 at 9:53 PM


Visibility: 10 mi

Pressure: 30.27 "Hg

Humidity: 74%

Dew point: 19 °F

Location of PocatelloLocation

Historic Weather in Pocatello — Graph

°F

Pocatello temperature yesterday

Maximum temperature yesterday: 24 °F (at 2:53 PM)
Minimum temperature yesterday: 3 °F (at 6:53 AM)
Average temperature yesterday: 15 °F

Past Weeks' High & Low Weather Summary

 TemperatureHumidityPressure
High48 °F (Dec 12, 10:53 PM)100% (Dec 13, 2:53 AM)30.49 "Hg (Dec 13, 2:53 AM)
Low3 °F (Dec 26, 6:53 AM)41% (Dec 24, 10:53 AM)29.37 "Hg (Dec 24, 9:53 PM)
Average31 °F84%30.09 "Hg
* Reported Dec 12 8:53 PM — Dec 27 8:53 PM, Pocatello, Weather by CustomWeather, © 2014

Note: Actual official high and low records may vary slightly from our data, if they occured in-between our weather recording intervals... More about our weather records

Advertising

Pocatello weather history for previous 24 hours

 ConditionsComfort  
Time TempWeatherWind HumidityBarometerVisibility
8:53 PM
Dec 27
26 °FLight snow. Overcast.18 mph74%30.28 "Hg10 mi
7:53 PM26 °FOvercast.23 mph74%30.31 "Hg10 mi
6:53 PM27 °FOvercast.18 mph66%30.32 "Hg10 mi
5:53 PM26 °FOvercast.14 mph71%30.33 "Hg10 mi
4:53 PM27 °FOvercast.13 mph69%30.34 "Hg10 mi
3:53 PM27 °FOvercast.9 mph69%30.34 "Hg10 mi
2:53 PM28 °FOvercast.9 mph66%30.34 "Hg10 mi
1:53 PM28 °FOvercast.10 mph66%30.35 "Hg10 mi
12:53 PM28 °FOvercast.10 mph66%30.37 "Hg10 mi
11:53 AM26 °FMostly cloudy.10 mph71%30.40 "Hg10 mi
10:53 AM25 °FOvercast.9 mph75%30.42 "Hg10 mi
9:53 AM23 °FMostly cloudy.5 mph81%30.42 "Hg10 mi
8:53 AM21 °FPassing clouds.7 mph85%30.44 "Hg10 mi
7:53 AM20 °FOvercast.6 mph85%30.43 "Hg10 mi
6:53 AM21 °FOvercast.10 mph85%30.43 "Hg10 mi
5:53 AM22 °FMostly cloudy.12 mph89%30.42 "Hg10 mi
4:53 AM23 °FOvercast.10 mph85%30.41 "Hg10 mi
4:00 AM22 °FOvercast.9 mph85%30.28 "Hg10 mi
2:53 AM22 °FMostly cloudy.10 mph92%30.39 "Hg10 mi
1:53 AM23 °FMostly cloudy.6 mph88%30.37 "Hg10 mi
12:53 AM20 °FOvercast.3 mph92%30.38 "Hg10 mi
11:53 PM
Dec 26
20 °FOvercast.7 mph92%30.38 "Hg10 mi
10:53 PM20 °FMostly cloudy.15 mph89%30.38 "Hg10 mi
Weather by CustomWeather, © 2014

See weather overviewHow to use our weather pages